Время (UTC), дата Ветер
(°,м/с) 
Видим.   Явления Облачность Т
(°С)
Тd
(°С)
f(%) Тe
(°С)
Pmin
(гПа)
dP
(гПа)
Po
(мм)
O2
(г/м3)
Тmin Tmax R s Состояние
почвы
00 01.07.12 200 (Ю) >10 км  в посл. час морось{дождь}  10/6 1000 м средняя 
[Sc|As op]
+16.8 +15.4 91 +27  1006  748  281  +15.3    12     
03 01.07.12 110 (В) >10 км    9/8 600 м кучево-дожд., средняя 
[Cb cap|Ac As]
+20.4 +17.1 81 +33  1005.8  748  277           
06 01.07.12 070 (В) >10 км    10/8 600 м кучево-дожд., средняя 
[Cb cap|Ac trans]
+20.9 +18 83 +35  1004.9  -0.9  747  275           
09 01.07.12 110 (В) >10 км    10/10 600 м кучево-дожд. 
[Cb cap]
+20.9 +18 83 +35  1003.9  -1  746  275    +22.2       
12 01.07.12 140 (ЮВ) >10 км    10/10 1000 м 
[Sc]
+19.3 +16.5 84 +31  1004.8  0.7  747  277    +22.2  0.0     
15 01.07.12 110 (В) >10 км    10/10 300 м 
[Sc|Ns]
+18 +16.3 90 +30  1004.5  -0.3  747  279           
18 01.07.12 110 (В) 10 км  слаб. морось  10/10 300 м 
[St]
+17.3 +16.6 96 +30  1003.7  -0.7  746  279           
21 01.07.12 110 (В) 10 км  в посл. час морось  10/10 200 м 
[St]
+17.4 +16.7 96 +30  1003.4  -0.3  746  279           
00 02.07.12 140 (ЮВ) >10 км  {морось}  10/10 300 м 
[St]
+18.8 +17 89 +32  1003.9  0.5  746  277  +17.1    0.7     
03 02.07.12 140 (ЮВ) 10 км    10/10 300 м 
[St]
+19.8 +15.8 78 +31  1003.8  -0.1  746  277           
06 02.07.12 160 (Ю) >10 км    10/10 600 м кучево-дожд. 
[Cb cap]
+20.4 +16.4 78 +32  1002.7  -0.9  745  276           
09 02.07.12 110 (В) >10 км    9/8 600 м кучево-дожд., средняя 
[Cb cap|Ac trans]
+20.4 +17.1 81 +33  1002.2  -0.5  745  276    +21.2       
12 02.07.12 050 (СВ) 10 км    10/8 600 м кучево-дожд., средняя 
[Cb cap|Ac As]
+19.4 +17.3 88 +34  1003.1  0.7  746  277    +21.2       
15 02.07.12 050 (СВ) 10 км    10/4 1000 м средняя 
[Sc|Ac As]
+18.9 +16.9 88 +32  1002.9  -0.2  745  277           
18 02.07.12 050 (СВ) 10 км  в посл. час дождь  10/10 600 м 
[Sc|Ns]
+18.2 +17.4 95 +33  1001.8  -1.1  745  277           
21 02.07.12 050 (СВ) 4000 м  слаб. дождь  10/10 600 м 
[Frnb|Ns]
+18 +17.7 98 +33  1001.9  0.1  745  277           
00 03.07.12 090 (В) 4000 м  слаб. дождь  10/10 200 м 
[Frnb|Ns]
+18.9 +18.4 97 +35  1002  0.1  745  276  +17.8       
03 03.07.12 230 (ЮЗ) 2000 м  дождь  10/10 200 м 
[Frnb|Ns]
+20.4 +19.9 97 +39  1001.8  745  274           
06 03.07.12 110 (В) >10 км  {дождь}  9/9 600 м кучево-дожд., средняя, верхняя 
[Cb cap|Ac trans|Ci fib]
+23.4 +20 81 +42  1000.6  -1.2  744  271           
12 03.07.12 тихо ()   >10 км    3/1 600 м кучево-дожд., средняя 
[Cb cap|Ac lent]
+21.1 +19.7 92 +39  1000.7  0.5  744  273    +25     
15 03.07.12 тихо ()   >10 км  зарница  8/5 600 м кучево-дожд., средняя 
[Cb cap|Ac trans]
+19.8 +19 95 +36  1001.6  0.7  744  275           
18 03.07.12 050 (СВ) 10 км  гроза, ливневой дождь  9/8 600 м кучево-дожд., средняя 
[Cb cap|Ac trans]
+19 +18.7 98 +37  1001.3  -0.3  744  276           
21 03.07.12 тихо ()   >10 км  {гроза, ливн. осадки}  9/3 300 м кучево-дожд., средняя, верхняя 
[Cb cap|Ac As|Ci sp]
+18.8 +18.5 98 +34  1002.4  1.1  745  277           
00 04.07.12 110 (В) >10 км    9/1 300 м средняя 
[St|Ac As]
+21.7 +18.4 81 +37  1002.7  0.5  748  275  +18.4    0.7     
03 04.07.12 110 (В) >10 км    8/5 600 м кучево-дожд., средняя 
[Cb cap|Ac trans]
+24 +19.3 75 +41  1002.2  -0.5  745  271           
06 04.07.12 180 (Ю) >10 км  гроза без осадков  6/6 600 м кучево-дожд. 
[Cb cap]
+26.7 +19.3 64 +44  1000.7  -1.4  744  269           
12 04.07.12 290 (З) >10 км  {гроза}  9/9 600 м кучево-дожд. 
[Cb cap]
+21.1 +19.5 91 +39  1001.2  744  274    +27.2       
15 04.07.12 360 (С) >10 км    6/0 средняя 
[Ac lent]
+19.8 +18.8 94 +37  1003  1.6  746  276           
18 04.07.12 030 (СВ) >10 км  местами туман поземный  ясно 
+17.8 +17.5 98 +32  1003.4  0.4  746  278           
21 04.07.12 320 (СЗ) >10 км    6/0 средняя 
[Ac lent]
+17.6 +16.9 96 +31  1004.5  747  279           
00 05.07.12 050 (СВ) >10 км    8/1 1000 м средняя, верхняя 
[Ac lent|Ci fib]
+20.7   1004.6  0.3  747    +17.1         
03 05.07.12 110 (В) >10 км  гроза без осадков  8/8 600 м кучево-дожд. 
[Cb cap]
+26.2 +19.2 65 +43  1004.2  -0.3  747  270           
06 05.07.12 250 (З) >10 км  в посл. час гроза  9/8 600 м кучево-дожд., верхняя 
[Cb cap|Ci fib]
+27.6 +18.4 57 +43  1003  -1.1  746  269           
09 05.07.12 тихо ()   >10 км    10/4 600 м кучево-дожд., средняя, верхняя 
[Cb cap|Ac cuf|Cs]
+25.9 +21.9 79 +49  1002.9  -0.1  746  269    +28.5       
12 05.07.12 110 (В) >10 км    6/0 средняя, верхняя 
[Ac cuf|Ci fib]
+23 +21.2 90 +45  1004.2  1.1  746  272    +28.5       
15 05.07.12 360 (С) >10 км  туман поземный  ясно 
+21.3 +20 92 +40  1005  0.8  747  274           
18 05.07.12 050 (СВ) >10 км  туман поземный  ясно 
+20 +19.2 95 +37  1004.6  -0.6  747  276           
21 05.07.12 050 (СВ) >10 км    ясно 
+18.4 +18.1 98 +34  1005.1  0.5  747  278           
00 06.07.12 070 (В) >10 км    3/3 1000 м 
[Cu hum]
+23.4 +19.3 78 +41  1004.5  -0.4  747  273  +17.9         
03 06.07.12 250 (З) >10 км    10/1 1000 м верхняя 
[Cu hum|Cs]
+27.7 +19.8 62 +46  1004.4  747  268           
06 06.07.12 250 (З) 10 км    10/1 1000 м верхняя 
[Cu hum|Cs]
+29.6 +20.4 58 +49  1002.7  -1.6  746  266           
09 06.07.12 250 (З) 10 км    10/0 верхняя 
[Cs]
+28.3 +29.9 100 +77  1001.7  -1  745  262    +29.9       
12 06.07.12 270 (З) 4000 м  туман поземный  3/0 средняя 
[Ac As]
+23 +20.9 88 +44  1002  0.2  746  272    +29.9       
15 06.07.12 тихо ()   4000 м  туман поземный  3/0 верхняя 
[Cs]
+19.6 +19 96 +36  1002.2  745  276           
18 06.07.12 тихо ()   4000 м  дымка  ясно 
+18 +17.3 96 +31  1002.3  0.1  745  278           
21 06.07.12 тихо ()   10 км    10/0 верхняя 
[Ci]
+18.1 +17.9 99 +32  1002.3  745  277           
00 07.07.12 200 (Ю) >10 км    3/0 верхняя 
[Ci fib]
+24.3 +21 82 +46  1001.8  -0.3  745  270  +16.4         
03 07.07.12 250 (З) >10 км    8/5 600 м кучево-дожд., верхняя 
[Cb cap|Ci fib]
+29.8 +19.1 53 +47  1000.4  -1.3  744  266           
06 07.07.12 050 (СВ) >10 км  гроза без осадков  9/9 600 м кучево-дожд. 
[Cb cap]
+25.6 +21.1 76 +47  1000.1  -0.3  744  269           
12 07.07.12 340 (С) >10 км  {гроза, ливн. осадки}  9/9 1000 м 
[Sc diur, vesp]
+19.9 +19.3 96 +38  1000.5  -0.6  744  275    +30.6     
15 07.07.12 340 (С) >10 км    8/5 1000 м средняя 
[Sc|Ac trans]
+19.7 +19.2 97 +38  1000.5  744  275           
18 07.07.12 320 (СЗ) >10 км    8/5 1000 м средняя 
[Sc|Ac trans]
+19.2 +18.6 96 +37  1000.3  -0.2  743  275           
21 07.07.12 360 (С) 10 км    4/3 1000 м средняя 
[Sc|Ac lent]
+19.8 +19.2 96 +38  1001.4  1.1  744  275           
00 08.07.12 020 (С) 28  0200 м    9/9 50 м кучево-дожд. 
[Cb cap]
+20   1002.4  1.2  745    +19.1       
03 08.07.12 110 (В) 4000 м  дымка  10/4 600 м кучево-дожд., средняя 
[Cb cap|Ac As]
+25.5 +18.1 64 +40  1002.8  0.5  746  271           
06 08.07.12 110 (В) 4000 м  дымка  6/6 600 м кучево-дожд. 
[Cb cap]
+27.5 +19 60 +44  1002.4  -0.4  745  268           
12 08.07.12 тихо ()   4000 м  дымка{ливн. осадки}  10/8 600 м кучево-дожд., средняя 
[Cb cap|Ac cuf]
+22.7 +18.8 79 +39  1006.4  2.8  748  274           
15 08.07.12 тихо ()   4000 м  дымка  8/0 средняя, верхняя 
[Ac trans|Cc]
+20.1 +17.3 84 +33  1007.9  1.3  749  277           
18 08.07.12 тихо ()   0500 м  туман  6/0 верхняя 
[Cc]
+18.2 +18 99 +33  1008.6  0.7  750  279           
21 08.07.12 тихо ()   2000 м  в посл. час туман  6/0 средняя, верхняя 
[Ac trans|Ci fib]
+16.6 +16.3 98 +28  1009.7  1.1  750  281           
00 09.07.12 140 (ЮВ) 4000 м  дымка{туман}  10/0 верхняя 
[Cc]
+20.8 +14.7 68 +29  1010  0.5  751  278  +14.9    0.0     
03 09.07.12 140 (ЮВ) 10 км    8/0 верхняя 
[Ci fib]
+23 +14.2 58 +30  1009.2  -0.8  750  276           
06 09.07.12 180 (Ю) >10 км    6/0 верхняя 
[Ci fib]
+25.2 +15.3 54 +34  1007.8  -1.4  749  273           
09 09.07.12 160 (Ю) >10 км    4/0 верхняя 
[Cs]
+24.7 +15.7 57 +35  1006.8  -1  748  273    +25.9       
12 09.07.12 230 (ЮЗ) 10 км    3/0 средняя, верхняя 
[Ac lent|Cc]
+20.6 +17.7 83 +34  1007.2  0.4  749  276    +25.9       
15 09.07.12 тихо ()   10 км  туман поземный  ясно 
+17.4 +16.4 94 +29  1007.4  749  280           
18 09.07.12 тихо ()   4000 м  дымка  ясно 
+15.2 +14.5 96 +23  1006.4  -1.1  748  282           
21 09.07.12 050 (СВ) 10 км    9/0 средняя, верхняя 
[Ac As|Ci]
+16.2 +15.9 98 +28  1006.3  748  281           
00 10.07.12 110 (В) 4000 м  дымка  10/0 средняя 
[Ac As]
+19.4 +17.1 87 +33  1006.2  -0.1  748  278  +14.3         
03 10.07.12 110 (В) >10 км  слаб. дождь  10/8 1000 м средняя 
[Sc|Ac trans]
+20.5 +17.4 82 +34  1007.3  1.3  749  277           
06 10.07.12 110 (В) 10 км  слаб. дождь  10/10 300 м 
[Frnb|Ns]
+18 +17 94 +31  1007.7  0.2  749  279           
12 10.07.12 110 (В) 10 км  слаб. морось{дождь}  10/10 200 м 
[St]
+17 +16.3 96 +29  1008.8  1.1  750  281    +21.2     
15 10.07.12 090 (В) 10 км  слаб. морось  10/10 200 м 
[St]
+16.8 +16.5 98 +29  1008.8  750  281           
18 10.07.12 070 (В) 10 км  в посл. час морось  10/10 300 м 
[St]
+16.4 +15.4 94 +26  1008.6  -0.2  750  282           
21 10.07.12 090 (В) >10 км    6/4 1000 м средняя 
[Sc|Ac trans]
+16.2 +14.5 90 +26  1009.1  0.5  750  282           
00 11.07.12 110 (В) >10 км    4/0 средняя 
[Ac trans]
+20.2 +12.8 62 +25  1009.1  750  279  +15.8       
03 11.07.12 110 (В) 5{11}  >10 км    5/3 1000 м средняя, верхняя 
[Cu hum|Ac cuf|Cc]
+23.2 +14.2 57 +31  1008.5    750  276           
06 11.07.12 110 (В) 4{10}  >10 км    8/5 600 м кучево-дожд., верхняя 
[Cb cap|Cc]
+25.2 +14.7 52 +33  1008.6  0.1  750  274           
09 11.07.12 110 (В) >10 км    4/3 600 м кучево-дожд., верхняя 
[Cb cap|Ci fib]
+24.5 +12.3 47 +29  1008.1  -0.5  749  275    +25.3       
12 11.07.12 110 (В) >10 км    8/6 1000 м средняя 
[Sc|Ac lent]
+20.6 +12.7 61 +26  1009.3  750  279    +25.3       
15 11.07.12 090 (В) >10 км    10/8 1000 м средняя 
[Sc|Ac lent]
+19.5 +13.2 67 +27  1010  0.1  751  280           
18 11.07.12 070 (В) >10 км    10/0 средняя, верхняя 
[Ac lent|Ci fib]
+17.9 +12.7 72 +24  1009.5  -0.5  750  281           
21 11.07.12 020 (С) >10 км    4/0 средняя 
[Ac cuf]
+16.6 +12.1 75 +22  1009.8  0.3  751  283           
00 12.07.12 110 (В) >10 км    8/5 1000 м верхняя 
[Cu med, cong|Ci sp]
+20.6 +13.3 63 +26  1009.6  -0.2  750  279  +15.4         
03 12.07.12 110 (В) >10 км    8/8 1000 м 
[Cu med, cong]
+24 +13.6 52 +30  1008.1  -1.3  749  275           
06 12.07.12 110 (В) >10 км    8/8 600 м кучево-дожд., средняя 
[Cb cap|Ac trans]
+24.6 +13.7 51 +31  1007  -1.1  749  274           
12 12.07.12 090 (В) 2{11}  >10 км    4/4 1000 м 
[Sc]
+19.6 +13.3 67 +27  1007.9  0.9  749  279    +25.2       
15 12.07.12 070 (В) >10 км    4/0 средняя 
[Ac cast]
+17.8 +12 69 +23  1007.6  -0.3  749  281           
18 12.07.12 090 (В) >10 км    8/0 средняя 
[Ac trans]
+17.8 +11.2 65 +22  1007.6  749  281           
21 12.07.12 070 (В) >10 км    6/0 средняя 
[Ac trans]
+16.5 +11.3 71 +20  1008.6  750  283           
00 13.07.12 090 (В) >10 км    8/1 1000 м средняя, верхняя 
[Cu hum|Ac lent|Ci sp]
+20 +10.9 56 +22  1008.6  750  279  +16.4         
03 13.07.12 110 (В) 3{10}  >10 км    9/4 600 м кучево-дожд., средняя, верхняя 
[Cb cap|Ac As|Ci]
+22 +11 50 +25  1007.8  -0.6  749  277           
06 13.07.12 090 (В) 2{10}  >10 км    9/3 600 м кучево-дожд., средняя, верхняя 
[Cb cap|Ac lent|Ci]
+22.8 +12.3 52 +27  1006.8  -1  748  276           
09 13.07.12 160 (Ю) >10 км    9/0 средняя 
[Ac As]
+22.2 +13.6 58 +29  1006.5  -0.3  748  276    +24.1       
12 13.07.12 тихо ()   >10 км    9/0 средняя, верхняя 
[Ac As|Ci fib]
+17.4 +14.6 84 +25  1007.1  0.4  749  280    +24.1       
15 13.07.12 тихо ()   10 км  слаб. дождь  10/8 1000 м средняя 
[Sc|Ac As]
+15.6 +14.6 94 +24  1007.2  749  282           
18 13.07.12 тихо ()   >10 км  {дождь}  10/1 1000 м средняя 
[Sc|Ac As]
+14.5 +13.2 92 +20  1006.8  -0.4  748  284           
21 13.07.12 тихо ()   >10 км  слаб. дождь  10/8 1000 м средняя 
[Sc|As op]
+15 +14.3 96 +23  1006.8  748  283           
00 14.07.12 050 (СВ) >10 км  {дождь}  10/8 1000 м средняя 
[Sc|Ac As]
+17.7 +15.5 87 +29  1006.9  0.2  748  280  +14.4    0.9     
03 14.07.12 140 (ЮВ) >10 км  слаб. дождь  9/8 1000 м средняя 
[Sc|Ac As]
+18.8 +15.4 81 +29  1006.9  748  279           
06 14.07.12 320 (СЗ) >10 км  в посл. час дождь  9/5 1000 м средняя 
[Sc|Ac lent]
+18.9 +16.4 85 +31  1006.5  -0.4  748  278           
09 14.07.12 тихо ()   >10 км    10/5 1000 м средняя 
[Sc|As op]
+19.5 +15.5 78 +29  1006  -0.5  748  278    +20.3       
12 14.07.12 180 (Ю) >10 км    10/5 1000 м средняя 
[Sc|Ac As]
+17.4 +16.1 92 +30  1006  748  280    +20.3     
15 14.07.12 200 (Ю) >10 км    8/0 средняя 
[Ac lent]
+16 +15.3 96 +26  1006.6  0.6  748  281           
18 14.07.12 200 (Ю) >10 км  туман поземный  10/0 средняя 
[As op]
+15.4 +14.9 97 +26  1006.5  -0.2  748  282           
21 14.07.12 340 (С) >10 км    9/9 600 м средняя 
[As op]
+15.8 +15.5 98 +27  1005.8  0.4  748  282           
00 15.07.12 320 (СЗ) >10 км    8/6 1000 м средняя 
[Cu med, cong|Ac trans]
+19.2 +15.8 81 +31  1006.8  748  278  +15         
03 15.07.12 110 (В) >10 км    9/5 600 м кучево-дожд., средняя 
[Cb calv|Ac trans]
+22.6 +15.4 64 +32  1006.8  0.2  748  275           
06 15.07.12 200 (Ю) >10 км    9/4 600 м кучево-дожд., средняя 
[Cb calv|Ac lent]
+24 +14.6 56 +32  1006.8  748  274           
09 15.07.12 010 (С) 52  3400 м    3/1 100 м средняя, верхняя 
[Cu hum|Ac lent|Cc]
  1006.7  -0.1  748      +24.6       
12 15.07.12 180 (Ю) >10 км    9/6 1000 м средняя 
[Sc|Ac lent]
+19.8 +16 79 +31  1008.8  1.9  750  278    +24.6       
15 15.07.12 090 (В) >10 км    4/0 средняя 
[Ac lent]
+18.1 +15 82 +29  1008.7  -0.1  750  280           
18 15.07.12 050 (СВ) >10 км    6/0 средняя 
[Ac lent]
+17 +15.1 89 +27  1009.2  0.5  750  281           
21 15.07.12 тихо ()   4000 м  дымка  10/0 средняя 
[Ac und]
+16.4 +15.4 94 +26  1009.8  0.6  751  282           
00 16.07.12 110 (В) 10 км  в посл. час ливневой дождь  9/5 600 м кучево-дожд., средняя, верхняя 
[Cb cap|Ac lent|Cc]
+17.4 +16.6 95 +31  1010  0.2  751  281  +15.4         
03 16.07.12 230 (ЮЗ) 10 км  слаб. ливневой дождь  9/3 600 м кучево-дожд., средняя, верхняя 
[Cb cap|Ac As|Ci fib]
+19.8 +17.2 85 +34  1009.9  -0.1  751  278           
06 16.07.12 270 (З) >10 км  {ливн. осадки}  5/3 600 м кучево-дожд., средняя 
[Cb cap|Ac lent]
+25 +17.5 63 +38  1008.4  -1.3  750  273           
09 16.07.12 250 (З) >10 км    3/1 1000 м средняя 
[Sc|Ac trans]
+25.3 +18.4 66 +40  1007.9  -0.4  749  272    +25.5       
12 16.07.12 тихо ()   >10 км    3/3 1000 м кучево-дожд. 
[Cb cap]
+21.4 +19.2 87 +38  1009.3  1.3  750  276    +25.5     
15 16.07.12 тихо ()   >10 км  местами туман поземный  ясно 
+18 +17.3 96 +31  1009.6  0.1  750  280           
18 16.07.12 тихо ()   >10 км  туман поземный  ясно 
+15.8 +15.5 98 +25  1009.6  750  282           
21 16.07.12 тихо ()   >10 км    ясно 
+16.8 +16.5 98 +28  1010  0.4  751  281           
00 17.07.12 250 (З) >10 км    3/0 верхняя 
[Ci fib]
+24.1 +19 73 +40  1010.4  0.6  751  274  +15.1         
03 17.07.12 270 (З) >10 км    8/6 600 м кучево-дожд., верхняя 
[Cb calv|Ci fib]
+28.4 +21.2 65 +50  1009.8  -0.5  751  269           
06 17.07.12 290 (З) >10 км    6/5 600 м кучево-дожд., верхняя 
[Cb cap|Ci fib]
+31 +19.3 50 +48  1008.6  -1  750  267           
09 17.07.12 200 (Ю) >10 км    3/3 600 м кучево-дожд. 
[Cb cap]
+27.5 +21.4 69 +49  1009  0.2  750  269    +31.6       
12 17.07.12 250 (З) >10 км  местами туман поземный  1/0 средняя 
[Ac lent]
+24.6 +22.1 86 +48  1009.7  0.7  751  272    +31.6       
15 17.07.12 тихо ()   >10 км  местами туман поземный  ясно 
+21.4 +20.5 95 +41  1009.8  751  275           
18 17.07.12 230 (ЮЗ) >10 км  местами туман поземный  ясно 
+19.6 +19 96 +37  1010.4  0.4  751  278           
21 17.07.12 020 (С) >10 км    3/3 1000 м 
[Sc]
+21 +19.4 91 +38  1011.2  752  277           
00 18.07.12 090 (В) >10 км    3/0 средняя, верхняя 
[Ac lent|Ci fib]
+25.8 +21 75 +47  1011.1  752  272  +18.3         
03 18.07.12 230 (ЮЗ) >10 км    8/3 600 м кучево-дожд., верхняя 
[Cb cap|Ci]
+30.6 +22.6 62 +56  1010.2  -0.7  751  266           
06 18.07.12 290 (З) >10 км    6/4 600 м кучево-дожд., средняя, верхняя 
[Cb cap|Ac cuf|Ci fib]
+31.9 +23.4 61 +59  1009.4  -0.8  751  265           
09 18.07.12 270 (З) >10 км    4/3 1000 м средняя, верхняя 
[Cu med, cong|Ac lent|Ci fib]
+31.4 +23.8 64 +60  1009.4  751  265    +33.1       
12 18.07.12 250 (З) >10 км    6/0 средняя 
[Ac cuf]
+25.5 +23.3 88 +52  1010.1  0.5  751  270    +33.1       
15 18.07.12 тихо ()   >10 км    ясно 
+22.4 +20.7 90 +43  1010.6  0.4  751  275           
18 18.07.12 050 (СВ) >10 км    3/0 верхняя 
[Ci fib]
+20.7 +21  1011  0.4  752  281           
21 18.07.12 050 (СВ) 10 км    9/8 1000 м средняя, верхняя 
[Sc|Ac lent|Cc]
+22.6 +21.5 94 +45  1011.8  0.8  752  274           
00 19.07.12 110 (В) 10 км    9/1 1000 м средняя, верхняя 
[Cu hum|Ac lent|Ci sp]
+27 +23.5 81 +54  1011.5  -0.2  752  269  +30.6         
03 19.07.12 160 (Ю) >10 км    9/4 600 м кучево-дожд., средняя, верхняя 
[Cb cap|Ac trans|Ci fib]
+30.5 +24.5 70 +61  1010.3  -1  751  266           
06 19.07.12 360 (С) >10 км    10/3 600 м кучево-дожд., средняя 
[Cb cap|Ac As]
+27.9 +23.4 77 +55  1009.5  -1  751  268           
12 19.07.12 360 (С) 10 км  {ливн. осадки}  10/10 600 м кучево-дожд. 
[Cb cap]
+22.2 +21.4 95 +44  1010  0.3  751  274    +30.5     
15 19.07.12 290 (З) 4000 м  дождь{ливн. осадки}  10/10 200 м 
[Frnb]
+21.3 +20.7 96 +42  1010  751  275           
18 19.07.12 тихо ()   4000 м  слаб. дождь{ливн. осадки}  10/10 100 м 
[Frnb]
+20 +19.7 98 +38  1010.7  0.7  751  277           
21 19.07.12 140 (ЮВ) 4000 м  слаб. дождь  10/10 300 м 
[Ns]
+19 +18.7 98 +37  1011.6  0.7  752  279           
00 20.07.12 250 (З) 4000 м  слаб. дождь  10/10 300 м 
[Frnb|Ns]
+20.7 +20.2 97 +40  1012.1  0.7  752  277  +18.9    12     
03 20.07.12 020 (С) 14  10 км  слаб. дождь  10/10 600 м 
[Sc|Ns]
+20.2   1012.6  0.5  753             
06 20.07.12 070 (В) 4000 м  слаб. дождь{морось}  10/10 600 м 
[Ns]
+20.2 +19.3 95 +37  1012.1    752  278      800     
12 20.07.12 070 (В) 4000 м  слаб. дождь{морось}  10/10 600 м 
[Ns]
+20.4 +19.9 97 +39  1012.5  0.4  753  277    +21.7     
15 20.07.12 090 (В) 4000 м  в посл. час дождь  10/10 600 м 
[Ns]
+20 +19.7 98 +38  1012.5  753  278           
18 20.07.12 110 (В) 4000 м  дымка{дождь}  10/0 средняя 
[As op]
+19.6 +19.3 98 +38  1012.4  -0.3  752  278           
21 20.07.12 140 (ЮВ) 4000 м  дымка  10/0 средняя 
[As op]
+19.7 +19.1 96 +38  1012.4  752  278           
00 21.07.12 090 (В) 4000 м  дымка  10/8 600 м кучево-дожд., средняя 
[Cb cap|As op]
+20.8 +20 95 +39  1012.2  752  277  +19.5    0.5     
03 21.07.12 180 (Ю) >10 км    9/8 600 м кучево-дожд., средняя, верхняя 
[Cb cap|Ac lent|Ci fib]
+23.8 +19.9 79 +42  1011.8  -0.4  752  274           
06 21.07.12 180 (Ю) >10 км    9/8 600 м кучево-дожд., средняя, верхняя 
[Cb cap|Ac lent|Cc]
+25.8 +20 70 +44  1010.4  -1.3  751  272           
09 21.07.12 230 (ЮЗ) >10 км    9/4 600 м кучево-дожд., средняя, верхняя 
[Cb cap|Ac lent|Ci fib]
+24.7 +17.5 64 +38  1010.4  -0.1  751  274    +27.4       
12 21.07.12 200 (Ю) >10 км    9/6 1000 м средняя 
[Sc|Ac lent]
+20.2 +17.6 85 +34  1011.2  0.6  752  278    +27.4       
15 21.07.12 тихо ()   >10 км    10/6 600 м кучево-дожд., средняя 
[Cb cap|Ac lent]
+19.5 +18.4 93 +35  1011.1  -0.1  752  278           
18 21.07.12 200 (Ю) >10 км    10/8 1000 м средняя 
[Sc|Ac lent]
+18.5 +17.9 96 +34  1010.5  -0.6  751  279           
21 21.07.12 160 (Ю) 2000 м  слаб. дождь  10/10 100 м 
[Ns]
+17.8 +17.6 99 +32  1010.2  -0.3  751  280           
00 22.07.12 180 (Ю) 4000 м  слаб. морось{дождь}  10/10 300 м 
[St]
+19 +17.7 92 +34  1010.2  751  279  +17.7    0.0     
03 22.07.12 180 (Ю) >10 км  {дождь, морось}  10/10 600 м кучево-дожд. 
[Cb cap]
+20.6 +18.4 87 +36  1009.3  -0.7  750  277           
06 22.07.12 160 (Ю) >10 км  {дождь, морось}  9/9 600 м кучево-дожд. 
[Cb cap]
+22 +18.3 80 +37  1008.6  -0.7  750  275           
09 22.07.12 140 (ЮВ) >10 км    10/10 600 м кучево-дожд. 
[Cb cap]
+21.3 +18.9 86 +38  1008  -0.6  749  276    +22.7       
12 22.07.12 140 (ЮВ) >10 км    10/10 1000 м 
[Sc]
+20 +19 94 +36  1008.2  749  277    +22.7  0.9     
15 22.07.12 140 (ЮВ) 4000 м  в посл. час морось  10/10 200 м 
[St]
+19.4 +19.1 98 +38  1007.2  -1  749  277           
18 22.07.12 160 (Ю) 2000 м  дымка{морось}  10/10 300 м 
[St]
+19.2 +18.6 96 +36  1006.1  -1.1  748  277           
21 22.07.12 160 (Ю) 4000 м  дымка  10/10 300 м 
[St]
+19.1 +18.6 97 +36  1005.5  -0.6  747  277           
00 23.07.12 200 (Ю) >10 км    10/10 300 м 
[St]
+20.6 +18.4 87 +36  1005.3  747  276  +18.9    0.1     
03 23.07.12 180 (Ю) >10 км    10/10 300 м 
[St]
+20.8 +20 95 +40  1005  -0.3  747  275           
06 23.07.12 180 (Ю) 4000 м  слаб. морось{дождь}  10/10 300 м 
[St]
+20.8 +19.9 95 +39  1005  747  275           
12 23.07.12 010 (С) 4000 м  слаб. морось{дождь}  10/10 300 м 
[St]
+19.4   1006.4  1.2  748      +22.3     
15 23.07.12 тихо ()   10 км  {морось}  10/10 300 м 
[St]
+19.5 +19.2 98 +36  1007.1  0.5  749  277           
18 23.07.12 тихо ()   10 км  {морось}  10/10 100 м 
[St]
+19 +18.5 97 +34  1007.4  0.3  749  278           
21 23.07.12 тихо ()   0500 м  туман  ?/?  
+19.8 +19.8 100 +38  1008.3  0.9  749  277           
00 24.07.12 320 (СЗ) 10 км  {туман}  9/8 600 м кучево-дожд., верхняя 
[Cb cap|Ci fib]
+22.2 +20 87 +41  1009  0.9  750  275  +18.9    0.6     
03 24.07.12 тихо ()   >10 км    9/9 600 м кучево-дожд., верхняя 
[Cb cap|Ci fib]
+25.6 +20.1 72 +44  1008.9  750  271           
06 24.07.12 230 (ЮЗ) >10 км    5/4 600 м кучево-дожд., средняя 
[Cb cap|Ac lent]
+28.4 +21.6 67 +51  1008.4  -0.5  750  268           
09 24.07.12 250 (З) >10 км    1/1 600 м кучево-дожд. 
[Cb cap]
+28.6 +21.1 64 +50  1007.7  -0.7  749  268    +29.2       
12 24.07.12 250 (З) >10 км    3/1 1000 м верхняя 
[Sc diur, vesp|Ci fib]
+23.4 +21.3 88 +45  1008.9  1.1  750  273    +29.2       
15 24.07.12 тихо ()   >10 км    ясно 
+21.2 +20.3 95 +41  1008.9  750  275           
18 24.07.12 250 (З) >10 км  местами туман поземный  1/0 средняя 
[Ac lent]
+20.2 +19.6 96 +38  1009.6  0.7  751  277           
21 24.07.12 360 (С) >10 км    10/0 верхняя 
[Ci]
+20.1 +19.6 97 +38  1009.6  751  277           
00 25.07.12 тихо ()   >10 км    3/0 средняя 
[Ac trans]
+24.4 +21.2 82 +46  1009.3  -0.3  750  272  +17.7         
03 25.07.12 250 (З) >10 км    4/1 1000 м средняя, верхняя 
[Cu hum|Ac cast|Ci fib]
+30 +20.7 57 +50  1008.1  -0.8  750  267           
06 25.07.12 250 (З) >10 км    8/4 600 м кучево-дожд., верхняя 
[Cb cap|Ci]
+31.3 +22.2 58 +55  1007  -1.1  749  265           
09 25.07.12 230 (ЮЗ) >10 км    6/6 600 м кучево-дожд. 
[Cb cap]
+30 +22.1 63 +54  1005.8  -1.2  748  266    +31.8       
12 25.07.12 тихо ()   >10 км    8/8 600 м кучево-дожд. 
[Cb cap]
+25.8 +22.7 83 +51  1005.9  -0.1  748  269    +31.8       
15 25.07.12 230 (ЮЗ) >10 км    ясно 
+21.6 +19.7 89 +40  1005.3  -0.7  747  274           
18 25.07.12 360 (С) >10 км    10/0 средняя 
[As trans]
+20.2 +18.9 92 +37  1004.5  -0.8  747  276           
21 25.07.12 050 (СВ) >10 км    10/0 средняя 
[Ac As]
+20.1 +18.8 92 +36  1004.3  -0.2  747  276           
00 26.07.12 тихо ()   >10 км    10/0 средняя 
[Ac und]
+22.8 +20.3 86 +42  1003.2  -1  750  274  +19.5         
03 26.07.12 110 (В) 10 км    10/3 600 м кучево-дожд., средняя 
[Cb cap|Ac und]
+24 +21.7 87 +47  1002.8  -0.4  746  271           
06 26.07.12 160 (Ю) 10 км  слаб. ливневой дождь  10/6 600 м кучево-дожд., средняя 
[Cb cap|Ac und]
+24.8 +22.6 88 +50  1000.7  -2  744  269           
12 26.07.12 110 (В) 10 км  {ливн. осадки}  10/8 600 м кучево-дожд., средняя 
[Cb cap|Ac lent]
+21.4 +20 92 +40  998.6  -0.5  742  272    +25.4  0.7     
15 26.07.12 140 (ЮВ) 10 км    10/10 300 м кучево-дожд. 
[Cb cap]
+20.5 +18.6 89 +36  997.9  -0.7  742  274           
18 26.07.12 140 (ЮВ) 10 км    10/10 100 м 
[St]
+20 +18.4 90 +36  995.8  -2.3  740  274           
21 26.07.12 тихо ()   2000 м  гроза, ливневой дождь  10/10 200 м кучево-дожд. 
[Cb cap]
+20.4 +20.2 99 +40  995.2  -0.4  740  272           
00 27.07.12 290 (З) 10 км  {гроза, ливн. осадки}  9/8 600 м кучево-дожд., верхняя 
[Cb cap|Ci fib]
+23.4 +21.6 90 +46  994.8  -0.4  740  269  +19.9       
03 27.07.12 200 (Ю) >10 км  слаб. ливневой дождь  9/8 600 м кучево-дожд., средняя 
[Cb cap|Ac lent]
+26.5 +20.6 70 +47  994.8  0.1  740  267           
06 27.07.12 230 (ЮЗ) >10 км  {ливн. осадки}  9/8 600 м кучево-дожд., средняя 
[Cb cap|Ac lent]
+24.6 +20.8 79 +46  994  -0.9  739  268           
12 27.07.12 тихо ()   >10 км    8/8 1000 м 
[Sc diur, vesp]
+22.4 +19.3 83 +40  996.1  1.6  740  271    +27.3  0.7     
15 27.07.12 110 (В) >10 км    10/10 300 м кучево-дожд. 
[Cb cap]
+20.8 +19.7 93 +39  997.8  1.7  742  273           
18 27.07.12 090 (В) 4000 м  морось{ливн. осадки, дождь}  10/10 200 м 
[St|Ns]
+16.8 +16.1 96 +28  1000  1.2  743  279           
21 27.07.12 170 (Ю) 4000 м  морось  10/10 200 м 
[St]
+16.2 +15.9 98 +28  1002  745  280           
00 28.07.12 360 (С) 10 км  слаб. морось  10/10 300 м 
[St]
+17.6 +16.6 94 +31  1003.7  1.7  746  279  +16.1       
03 28.07.12 110 (В) >10 км  {дождь, морось}  10/3 300 м средняя 
[St|As trans]
+19.2 +16.9 87 +32  1005.9  2.1  748  278           
06 28.07.12 тихо ()   >10 км  {дождь, морось}  9/9 600 м кучево-дожд., средняя 
[Cb cap|Ac trans]
+20.9 +15.7 72 +31  1006.1  0.4  748  277           
09 28.07.12 110 (В) >10 км    9/4 600 м кучево-дожд., средняя 
[Cb cap|Ac As]
+19.8 +16.5 81 +32  1006.8  0.5  748  278    +21.6       
12 28.07.12 160 (Ю) 4000 м  ливневой дождь  10/10 600 м кучево-дожд. 
[Cb cap]
+17.8 +15.9 89 +29  1009  2.2  750  280    +21.6  0.1     
15 28.07.12 090 (В) >10 км  {ливн. осадки}  9/9 1000 м 
[Sc]
+16 +15.5 97 +27  1009  750  282           
18 28.07.12 090 (В) >10 км  {ливн. осадки}  6/3 1000 м средняя, верхняя 
[Sc|Ac lent|Ci fib]
+14.2 +14 99 +22  1008.6  -0.5  750  284           
21 28.07.12 тихо ()   >10 км    9/9 1000 м 
[Sc]
+15 +14.1 94 +22  1008.6  750  283           
00 29.07.12 090 (В) >10 км    10/0 средняя 
[Ac As]
+16.3 +14 86 +24  1008.2  -0.3  749  282  +14.1    0.6     
03 29.07.12 070 (В) >10 км    10/0 средняя 
[Ac As]
+18.3 +13.8 75 +26  1006.5  -1.7  748  280           
06 29.07.12 090 (В) >10 км    10/3 1000 м средняя 
[Sc|Ac As]
+18.8 +13.7 72 +27  1005.6  -0.9  747  279           
09 29.07.12 090 (В) >10 км    10/3 1000 м средняя 
[Sc|Ac und]
+18.8 +14.7 77 +28  1004.7  -0.9  747  278    +19.2       
12 29.07.12 070 (В) >10 км    10/0 средняя 
[Ac und]
+17.5 +13.8 79 +25  1003.8  -0.8  746  280    +19.2       
15 29.07.12 360 (С) >10 км  {ливн. осадки}  10/6 600 м кучево-дожд., средняя 
[Cb cap|Ac und]
+16.2 +13.2 82 +23  1002.5  -1.3  745  281           
18 29.07.12 050 (СВ) 4000 м  дождь{ливн. осадки}  10/10 300 м 
[Frnb|Ns]
+15 +13.9 93 +23  1001.7  -0.9  744  281           
21 29.07.12 050 (СВ) 10 км  слаб. дождь  10/10 300 м 
[Sc|Ns]
+15 +13.9 93 +23  1001.5  -0.2  744  281           
00 30.07.12 050 (СВ) >10 км  слаб. дождь  10/10 300 м 
[Sc|Ns]
+15.4 +14 91 +23  1001.5  744  281  +14.7       
03 30.07.12 090 (В) >10 км  слаб. дождь  10/10 600 м 
[Sc|Ns]
+17 +13.5 80 +23  1001.3  -0.1  744  280           
06 30.07.12 050 (СВ) 4000 м  дождь  10/10 300 м 
[Frnb|Ns]
+16 +15.3 96 +26  1001.7  0.4  745  280           
12 30.07.12 070 (В) 4000 м  слаб. дождь  10/10 300 м 
[Frnb|Ns]
+15.4 +14.5 94 +24  1003.2  1.1  746  281    +17.6  13     
15 30.07.12 050 (СВ) >10 км  туман поземный{дождь}  10/10 600 м кучево-дожд. 
[Cb cap]
+16.9 +13.9 82 +24  1003.6  0.5  746  280           
18 30.07.12 050 (СВ) 4000 м  дождь  10/10 600 м 
[Sc|Ns]
+16.2 +13.4 83 +23  1004.4  0.7  746  281           
21 30.07.12 050 (СВ) 4000 м  дождь  10/10 600 м 
[Ns]
+14.5 +13.6 94 +22  1006.1  1.6  748  283           
00 31.07.12 070 (В) 2000 м  дождь  10/10 600 м 
[Ns]
+16.2 +13.4 83 +24  1007.5  1.5  749  282  +14.3    12     
06 31.07.12 360 (С) 5-11{13}  10 км  {дождь}  10/0 средняя 
[Ac und]
+17 +12.5 75 +22  1009.4  1.3  750  282           
12 31.07.12 050 (СВ) 2{11}  10 км    10/10 1000 м 
[Sc]
+16.6 +12.6 77 +22  1011.5  752  283    +17.7     
15 31.07.12 050 (СВ) 10 км    10/10 1000 м 
[Sc]
+16.4 +13 80 +23  1011.5  752  283           
18 31.07.12 020 (С) 10 км    10/10 1000 м 
[Sc]
+15.8 +13.3 85 +23  1011.9  0.3  752  284           
21 31.07.12 050 (СВ) 10 км  слаб. дождь  10/10 1000 м 
[Sc]
+14.8 +13.4 91 +22  1012.8  0.9  753  285           
00 01.08.12 050 (СВ) >10 км  в посл. час дождь  10/10 1000 м 
[Sc]
+16.6 +14.5 87 +26  1013.6  0.9  753  283  +14.6    0.0     
03 01.08.12 050 (СВ) >10 км  в посл. час ливневой дождь  9/3 600 м кучево-дожд., средняя, верхняя 
[Cb cap|Ac As|Cc]
+19.2 +14 72 +27  1013.7  0.1  753  281           
06 01.08.12 070 (В) >10 км  {ливн. осадки}  3/1 600 м кучево-дожд., средняя, верхняя 
[Cb cap|Ac lent|Ci ing]
+22 +12.1 53 +26  1013.3  -0.2  753  279           
09 01.08.12 180 (Ю) >10 км    1/1 600 м кучево-дожд. 
[Cb cap]
+20.8 +15.4 71 +30  1013  -0.3  753  279    +22.7       
12 01.08.12 270 (З) >10 км    ясно 
+15.9 +13 83 +22  1014.5  1.3  754  285    +22.7  0.1     
15 01.08.12 тихо ()   >10 км  туман поземный  ясно 
+12.6 +11.9 96 +16  1015.1  0.4  754  288           
18 01.08.12 тихо ()   >10 км  туман поземный  ясно 
+10.8 +10.4 97 +12  1015.2  0.1  754  291           
21 01.08.12 070 (В) 0500 м  туман  ясно 
+11.8 +11.8 100 +16  1016.1  0.9  755  289           
00 02.08.12 090 (В) 2000 м  в посл. час туман  8/8 300 м 
[St]
+15.2 +14.1 93 +24  1016.7  0.6  756  285  +9.9         
03 02.08.12 180 (Ю) >10 км    4/1 1000 м верхняя 
[Cu hum|Ci fib]
+21.6 +17.4 77 +34  1016.2  -0.2  755  278           
06 02.08.12 160 (Ю) >10 км    8/1 1000 м верхняя 
[Cu hum|Ci]
+25.2 +17.4 62 +38  1014.6  -1.6  754  274           
09 02.08.12 180 (Ю) >10 км    8/0 средняя 
[Ac As]
+23.2 +18.8 76 +39  1014.6  754  276    +25.7       
12 02.08.12 180 (Ю) >10 км  местами туман поземный  8/0 средняя, верхняя 
[Ac trans|Ci sp]
+20 +18.4 90 +35  1015.1  0.4  755  279    +25.7       
15 02.08.12 тихо ()   >10 км  пыльная буря  8/0 средняя 
[Ac trans]
+17.3 +16.5 95 +28  1015.1  755  282           
18 02.08.12 340 (С) >10 км  туман поземный  8/0 средняя 
[Ac trans]
+16 +15.7 98 +27  1015.1  755  284           
21 02.08.12 070 (В) 0500 м  туман  10/0 средняя 
[Ac und]
+16 +16 100 +27  1015.1  755  284           
Время (UTC), дата Ветер
(°,м/с) 
Видим.   Явления Облачность Т
(°С)
Тd
(°С)
f(%) Тe
(°С)
Pmin
(гПа)
dP
(гПа)
Po
(мм)
O2
(г/м3)
Тmin Tmax R s Состояние
почвы